GW5538 Weather Reports


time (UTC)temp
F
wind
direction
speed
knots
gust
knots
rain 1hr
in
rain 24hr
in
rain mn
in
humidity
%
barometer
mb
20260506122934 66 93 7.0 8.7 0.00 0.00 0.00 58 1007.5
20260506122430 66 91 6.1 9.6 0.00 0.00 0.00 57 1007.3
20260506121929 65 83 3.5 7.0 0.00 0.00 0.00 59 1007.4
20260506121426 65 94 2.6 9.6 0.00 0.00 0.00 59 1007.2
20260506120923 66 80 7.8 11.3 0.00 0.00 0.00 56 1007.7
20260506120420 66 82 5.2 9.6 0.00 0.00 0.00 56 1007.5
20260506115917 65 85 4.3 12.2 0.00 0.00 0.00 59 1007.4
20260506115415 65 86 7.8 12.2 0.00 0.00 0.00 56 1007.7
20260506114913 66 58 7.0 15.6 0.00 0.00 0.00 55 1007.5
20260506114410 65 92 5.2 7.0 0.00 0.00 0.00 58 1007.5
20260506113909 65 79 3.5 7.8 0.00 0.00 0.00 60 1007.7
20260506113406 64 66 3.5 12.2 0.00 0.00 0.00 59 1007.7
20260506112903 64 28 4.3 7.8 0.00 0.00 0.00 60 1007.8
20260506112400 64 101 4.3 11.3 0.00 0.00 0.00 61 1008.0
20260506111857 64 90 3.5 13.0 0.00 0.00 0.00 57 1008.0
20260506111355 64 69 7.0 9.6 0.00 0.00 0.00 56 1007.9
20260506110852 63 96 3.5 11.3 0.00 0.00 0.00 60 1008.1
20260506110350 63 85 3.5 12.2 0.00 0.00 0.00 59 1008.0
20260506105847 63 74 2.6 8.7 0.00 0.00 0.00 61 1008.3
20260506105343 63 83 7.0 12.2 0.00 0.00 0.00 58 1008.2
20260506104840 63 81 9.6 13.0 0.00 0.00 0.00 57 1008.1
20260506104338 64 91 6.1 8.7 0.00 0.00 0.00 60 1008.2
20260506103836 62 118 5.2 8.7 0.00 0.00 0.00 60 1008.4
20260506103333 62 86 3.5 8.7 0.00 0.00 0.00 60 1008.4
20260506102830 62 47 2.6 7.8 0.00 0.00 0.00 60 1008.5
20260506102328 63 87 5.2 7.8 0.00 0.00 0.00 58 1008.5
20260506101825 61 47 4.3 6.1 0.00 0.00 0.00 61 1008.5
20260506101321 61 65 4.3 8.7 0.00 0.00 0.00 60 1008.8
20260506100819 61 82 1.7 7.0 0.00 0.00 0.00 63 1008.8
20260506100317 61 60 3.5 9.6 0.00 0.00 0.00 63 1008.7
20260506095815 60 67 3.5 7.0 0.00 0.00 0.00 63 1008.6
20260506095312 60 30 3.5 11.3 0.00 0.00 0.00 61 1008.5
20260506094809 60 67 7.8 11.3 0.00 0.00 0.00 62 1008.6
20260506094307 60 75 4.3 12.2 0.00 0.00 0.00 61 1008.5
20260506093805 60 65 4.3 7.8 0.00 0.00 0.00 64 1008.5
20260506093302 60 72 5.2 12.2 0.00 0.00 0.00 62 1008.6
20260506092800 59 85 3.5 11.3 0.00 0.00 0.00 63 1008.5
20260506092257 59 38 7.8 9.6 0.00 0.00 0.00 62 1008.6
20260506091754 59 72 7.8 11.3 0.00 0.00 0.00 63 1008.3
20260506091252 58 80 4.3 7.8 0.00 0.00 0.00 65 1008.5
20260506090750 58 50 7.0 13.9 0.00 0.00 0.00 63 1008.7
20260506090247 59 73 5.2 9.6 0.00 0.00 0.00 64 1008.6
20260506085743 58 51 4.3 13.0 0.00 0.00 0.00 64 1008.6
20260506085240 59 48 7.8 9.6 0.00 0.00 0.00 65 1008.6
20260506084736 58 41 2.6 7.8 0.00 0.00 0.00 66 1008.8
20260506084233 58 74 4.3 11.3 0.00 0.00 0.00 65 1008.8
20260506083730 58 64 2.6 8.7 0.00 0.00 0.00 66 1008.8
20260506083228 58 64 5.2 8.7 0.00 0.00 0.00 65 1008.8
20260506082725 58 56 1.7 8.7 0.00 0.00 0.00 68 1008.8
20260506082220 58 111 2.6 7.8 0.00 0.00 0.00 69 1009.1
20260506081718 57 78 2.6 7.8 0.00 0.00 0.00 69 1008.9
20260506081215 57 81 5.2 9.6 0.00 0.00 0.00 68 1009.2
20260506080713 57 80 4.3 8.7 0.00 0.00 0.00 70 1009.2
20260506080209 57 94 4.3 9.6 0.00 0.00 0.00 69 1009.2
20260506073154 55 65 6.1 8.7 0.00 0.00 0.00 72 1009.5
20260506072650 55 79 4.3 7.0 0.00 0.00 0.00 72 1009.2
20260506072148 55 92 6.1 9.6 0.00 0.00 0.00 72 1009.4
20260506071645 55 66 5.2 9.6 0.00 0.00 0.00 72 1009.5
20260506071143 55 63 3.5 7.0 0.00 0.00 0.00 74 1009.5
20260506070640 54 61 7.8 11.3 0.00 0.00 0.00 72 1009.4
20260506070137 54 56 5.2 7.0 0.00 0.00 0.00 73 1009.5
20260506062114 53 69 4.3 7.8 0.00 0.00 0.00 77 1009.7
20260506061609 52 60 4.3 8.7 0.00 0.00 0.00 79 1009.9
20260506061108 52 44 3.5 8.7 0.00 0.00 0.00 79 1009.7
20260506060606 51 42 4.3 6.1 0.00 0.00 0.00 81 1009.9
20260506051035 50 50 1.7 9.6 0.00 0.00 0.00 85 1009.8
20260506050532 50 7 5.2 8.7 0.00 0.00 0.00 85 1009.8
20260506045023 50 72 2.6 7.0 0.00 0.00 0.00 87 1009.8
20260506044521 50 75 3.5 8.7 0.00 0.00 0.00 87 1009.8
20260506044018 49 65 2.6 8.7 0.00 0.00 0.00 88 1009.7
20260506043515 49 66 4.3 7.0 0.00 0.00 0.00 89 1009.5
20260506043013 49 64 2.6 7.0 0.00 0.00 0.00 89 1009.6
20260506042512 49 53 3.5 6.1 0.00 0.00 0.00 89 1009.8
20260506042009 48 47 3.5 6.1 0.00 0.00 0.00 89 1009.7
20260506041508 48 30 2.6 6.1 0.00 0.00 0.00 89 1009.5
20260506041004 48 63 7.0 9.6 0.00 0.00 0.00 89 1009.6
20260506040502 48 90 2.6 6.1 0.00 0.00 0.00 89 1009.7
20260506035957 48 69 2.6 6.1 0.00 0.00 0.00 89 1009.6
20260506035455 48 69 3.5 7.0 0.00 0.00 0.00 89 1009.7
20260506034951 48 52 1.7 6.1 0.00 0.00 0.00 89 1009.6
20260506034449 48 50 5.2 7.0 0.00 0.00 0.00 88 1009.6
20260506033946 48 38 2.6 5.2 0.00 0.00 0.00 88 1009.6
20260506033443 48 42 4.3 7.0 0.00 0.00 0.00 88 1009.5
20260506032939 48 77 3.5 7.0 0.00 0.00 0.00 88 1009.6
20260506032437 48 85 3.5 5.2 0.00 0.00 0.00 88 1009.5
20260506031933 48 70 2.6 6.1 0.00 0.00 0.00 88 1009.5
20260506031431 48 62 3.5 7.0 0.00 0.00 0.00 88 1009.6
20260506030929 48 53 0.9 5.2 0.00 0.00 0.00 88 1009.4
20260506030426 48 73 1.7 6.1 0.00 0.00 0.00 88 1009.3
20260506025923 48 57 2.6 6.1 0.00 0.00 0.00 88 1009.5
20260506025420 48 68 0.0 5.2 0.00 0.00 0.00 88 1009.5
20260506024916 48 46 3.5 6.1 0.00 0.00 0.00 88 1009.2
20260506024414 48 90 1.7 2.6 0.00 0.00 0.00 88 1009.3
20260506023909 48 64 1.7 3.5 0.00 0.00 0.00 87 1009.2
20260506023407 48 88 3.5 8.7 0.00 0.00 0.00 87 1009.3
20260506022903 48 39 4.3 5.2 0.00 0.00 0.00 87 1009.3
20260506022401 48 38 1.7 5.2 0.00 0.00 0.00 87 1009.4
20260506021859 48 53 3.5 5.2 0.00 0.00 0.00 87 1009.3
20260506021355 48 84 4.3 5.2 0.00 0.00 0.00 87 1008.9
20260506020852 48 7 1.7 5.2 0.00 0.00 0.00 88 1009.2
20260506020350 48 38 2.6 5.2 0.00 0.00 0.00 87 1009.2
20260506015847 48 45 0.9 3.5 0.00 0.00 0.00 87 1009.1
20260506015345 48 69 1.7 3.5 0.00 0.00 0.00 87 1009.1
20260506014841 48 53 1.7 5.2 0.00 0.00 0.00 86 1009.1
20260506014338 48 55 3.5 7.0 0.00 0.00 0.00 86 1009.2
20260506013835 48 63 1.7 3.5 0.00 0.00 0.00 87 1008.9
20260506013333 48 57 1.7 3.5 0.00 0.00 0.00 87 1009.1
20260506012829 49 83 0.9 5.2 0.00 0.00 0.00 86 1009.2
20260506012326 49 68 0.9 7.0 0.00 0.00 0.00 85 1009.3
20260506011823 49 20 7.0 7.8 0.00 0.00 0.00 84 1009.4
20260506011319 50 24 2.6 3.5 0.00 0.00 0.00 83 1009.3
20260506010817 50 56 4.3 6.1 0.00 0.00 0.00 83 1009.3
20260506010315 50 356 2.6 3.5 0.00 0.00 0.00 82 1009.3
20260506005812 50 72 2.6 3.5 0.00 0.00 0.00 81 1009.4
20260506005308 51 8 1.7 3.5 0.00 0.00 0.00 80 1009.1
20260506004805 51 64 1.7 3.5 0.00 0.00 0.00 80 1008.9
20260506004302 51 31 1.7 2.6 0.00 0.00 0.00 80 1008.6
20260506003758 51 28 1.7 5.2 0.00 0.00 0.00 80 1008.6
20260506003254 51 74 0.9 2.6 0.00 0.00 0.00 79 1008.7
20260506002751 51 49 2.6 2.6 0.00 0.00 0.00 79 1008.6
20260506002247 51 32 1.7 3.5 0.00 0.00 0.00 80 1008.6
20260506001743 51 78 0.0 1.7 0.00 0.00 0.00 79 1008.8
20260506001241 51 82 0.0 2.6 0.00 0.00 0.00 78 1008.9
20260506000737 51 63 1.7 1.7 0.00 0.00 0.00 77 1008.8
20260506000235 52 26 0.9 2.6 0.00 0.00 0.00 77 1008.8
20260505235732 52 79 0.9 1.7 0.00 0.00 0.00 77 1008.7
20260505235230 52 67 1.7 2.6 0.00 0.00 0.00 78 1008.7
20260505234726 52 59 0.0 2.6 0.00 0.00 0.00 78 1008.7
20260505234224 52 79 0.0 2.6 0.00 0.00 0.00 79 1008.8
20260505233720 52 4 1.7 1.7 0.00 0.00 0.00 79 1008.6
20260505233218 52 52 0.9 1.7 0.00 0.00 0.00 78 1009.2
20260505232715 52 20 0.9 2.6 0.00 0.00 0.00 78 1008.9
20260505232212 52 330 2.6 5.2 0.00 0.00 0.00 78 1009.1
20260505231709 52 52 1.7 2.6 0.00 0.00 0.00 78 1008.8
20260505231208 52 7 1.7 2.6 0.00 0.00 0.00 76 1008.8
20260505230706 52 29 1.7 2.6 0.00 0.00 0.00 75 1008.7
20260505230202 52 78 1.7 3.5 0.00 0.00 0.00 76 1008.8
20260505225658 52 70 1.7 2.6 0.00 0.00 0.00 77 1008.5
20260505225155 52 60 0.9 2.6 0.00 0.00 0.00 78 1008.4
20260505224650 52 67 1.7 2.6 0.00 0.00 0.00 79 1008.4
20260505224144 52 63 1.7 2.6 0.00 0.00 0.00 79 1008.5
20260505223641 52 52 0.9 2.6 0.00 0.00 0.00 79 1008.5
20260505223136 53 63 2.6 2.6 0.00 0.00 0.00 79 1008.5
20260505222632 53 42 2.6 6.1 0.00 0.00 0.00 80 1008.7
20260505222128 53 51 2.6 5.2 0.00 0.00 0.00 81 1008.9
20260505221625 52 19 2.6 5.2 0.00 0.00 0.00 82 1008.9
20260505221122 52 350 2.6 3.5 0.00 0.00 0.00 82 1008.9
20260505220620 52 64 0.9 2.6 0.00 0.00 0.00 82 1008.6
20260505220117 52 36 0.9 2.6 0.00 0.00 0.00 82 1008.7
20260505215615 53 56 0.9 2.6 0.00 0.00 0.00 82 1008.6
20260505215113 53 59 1.7 2.6 0.00 0.00 0.00 81 1008.6
20260505214611 53 80 1.7 3.5 0.00 0.00 0.00 81 1008.7
20260505214107 53 66 1.7 1.7 0.00 0.00 0.00 81 1008.7
20260505213605 53 65 0.9 1.7 0.00 0.00 0.00 81 1008.7
20260505213101 53 57 1.7 5.2 0.00 0.00 0.00 80 1008.8
20260505212557 53 67 0.0 3.5 0.00 0.00 0.00 80 1008.5
20260505212055 54 29 3.5 5.2 0.00 0.00 0.00 80 1008.9
20260505211552 54 33 4.3 6.1 0.00 0.00 0.00 81 1008.8
20260505211049 54 81 1.7 5.2 0.00 0.00 0.00 81 1008.7
20260505210545 54 14 3.5 6.1 0.00 0.00 0.00 82 1008.8
20260505210043 54 55 5.2 7.8 0.00 0.00 0.00 83 1008.7
20260505205540 54 293 3.5 7.0 0.00 0.07 0.07 84 1008.6
20260505205038 54 323 4.3 7.8 0.00 0.07 0.07 84 1008.7
20260505204535 54 11 4.3 7.8 0.00 0.07 0.07 84 1008.5
20260505204032 54 268 7.8 9.6 0.00 0.07 0.07 83 1008.4
20260505203529 54 72 0.0 0.9 0.00 0.07 0.07 81 1007.7
20260505203026 55 83 0.0 0.9 0.00 0.07 0.07 81 1007.4
20260505202522 55 91 2.6 2.6 0.00 0.07 0.07 82 1007.5
20260505202018 55 86 1.7 6.1 0.00 0.07 0.07 82 1007.3
20260505201515 55 72 4.3 7.0 0.00 0.07 0.07 82 1007.3
20260505201012 55 78 1.7 6.1 0.00 0.07 0.07 82 1007.7
20260505200510 56 33 5.2 9.6 0.07 0.07 0.07 82 1007.9
20260505200007 57 46 4.3 8.7 0.12 0.07 0.07 83 1008.1
20260505195503 58 44 5.2 8.7 0.00 0.05 0.05 87 1008.7
20260505195000 58 260 4.3 6.1 0.00 0.05 0.05 91 1009.7
20260505194458 57 270 5.2 8.7 0.00 0.05 0.05 92 1009.6
20260505193958 57 309 4.3 7.0 0.00 0.05 0.05 92 1008.9
20260505193455 57 285 1.7 1.7 0.00 0.05 0.05 92 1008.1
20260505192953 57 85 0.0 0.0 0.00 0.05 0.05 92 1007.5
20260505192451 57 88 0.9 0.9 0.00 0.05 0.05 92 1007.6
20260505191948 57 93 0.0 0.9 0.00 0.05 0.05 92 1007.8
20260505191447 57 97 0.0 0.9 0.00 0.05 0.05 92 1008.0
20260505190943 58 98 0.0 0.0 0.00 0.05 0.05 92 1008.1
20260505190438 58 100 0.0 0.9 0.00 0.05 0.05 92 1008.1
20260505185934 58 138 0.9 1.7 0.00 0.05 0.05 92 1008.1
20260505185432 58 98 0.0 0.0 0.00 0.05 0.05 92 1007.9
20260505184928 58 95 0.0 0.0 0.00 0.05 0.05 92 1008.1
20260505184425 58 95 0.0 0.9 0.00 0.05 0.05 91 1007.9
20260505183922 58 109 0.9 0.9 0.00 0.05 0.05 91 1008.1
20260505183419 58 95 0.0 0.0 0.00 0.05 0.05 91 1008.0
20260505182915 59 97 0.0 0.0 0.00 0.05 0.05 90 1008.0
20260505182412 59 99 0.0 0.0 0.00 0.05 0.05 90 1008.2
20260505181908 59 102 0.0 0.0 0.00 0.05 0.05 89 1008.0
20260505181406 59 125 0.9 0.9 0.00 0.05 0.05 88 1008.1
20260505180902 59 80 0.0 0.0 0.00 0.05 0.05 87 1008.1
20260505180359 59 76 0.9 0.9 0.00 0.05 0.05 88 1008.0
20260505175855 59 97 0.0 0.0 0.00 0.05 0.05 87 1008.2
20260505175352 59 97 0.0 0.0 0.07 0.05 0.05 87 1008.3
20260505174848 59 98 0.0 0.0 0.07 0.05 0.05 86 1008.0
20260505174346 59 111 0.0 0.9 0.00 0.04 0.04 86 1008.2
20260505173842 60 98 0.0 0.0 0.00 0.04 0.04 86 1008.3
20260505173339 60 106 0.0 1.7 0.00 0.04 0.04 86 1008.3
20260505172836 60 143 0.9 1.7 0.00 0.04 0.04 84 1008.4
20260505172334 60 111 0.9 0.9 0.00 0.04 0.04 84 1008.5
20260505171833 60 85 0.0 0.0 0.00 0.04 0.04 84 1008.3
20260505171330 60 130 0.0 0.0 0.00 0.04 0.04 83 1008.2
20260505170826 60 103 0.0 0.0 0.00 0.04 0.04 81 1008.4
20260505170323 60 101 0.0 0.0 0.00 0.04 0.04 81 1008.1
20260505165819 61 95 0.0 0.0 0.00 0.04 0.04 80 1008.3
20260505165314 61 94 0.0 0.0 0.00 0.04 0.04 81 1008.1
20260505164810 62 91 0.0 0.0 0.00 0.04 0.04 80 1008.2
20260505164308 62 88 0.0 0.0 0.00 0.04 0.04 78 1008.1
20260505163806 62 87 0.0 0.0 0.00 0.04 0.04 77 1008.2
20260505163304 62 87 0.0 0.0 0.00 0.04 0.04 75 1008.1
20260505162802 62 85 0.0 0.0 0.00 0.04 0.04 74 1008.2
20260505162258 62 78 0.0 0.0 0.00 0.04 0.04 73 1008.1
20260505161755 62 78 0.0 0.0 0.00 0.04 0.04 73 1008.4
20260505161253 62 78 0.0 0.0 0.00 0.04 0.04 73 1008.1
20260505160750 62 78 0.0 0.9 0.00 0.04 0.04 75 1008.2
20260505160248 62 67 0.9 0.9 0.00 0.04 0.04 75 1008.1
20260505153226 64 230 2.6 3.5 0.00 0.00 0.00 60 1008.6
20260505152724 64 342 4.3 6.1 0.00 0.00 0.00 59 1008.4
20260505152220 65 328 3.5 7.0 0.00 0.00 0.00 58 1008.2
20260505151714 65 352 3.5 7.8 0.00 0.00 0.00 57 1008.1
20260505151212 66 70 3.5 7.8 0.00 0.00 0.00 56 1008.0
20260505150708 66 318 3.5 6.1 0.00 0.00 0.00 53 1008.2
20260505150206 67 36 3.5 5.2 0.00 0.00 0.00 52 1008.3
20260505140639 69 330 2.6 6.1 0.00 0.00 0.00 48 1008.5
20260505140136 69 184 2.6 5.2 0.00 0.00 0.00 49 1008.6
20260505124549 71 279 7.8 11.3 0.00 0.00 0.00 45 1008.9
20260505124045 72 244 3.5 7.0 0.00 0.00 0.00 43 1009.1
20260505123542 71 251 6.1 8.7 0.00 0.00 0.00 45 1009.1